Location: Newark
(42.9858°N, 0.6717°E)
Time: 06:31:21
(UTC+00:00)

S-56A Canister/Altair - Pass Details

Date: 23 November 2019
Orbit: 633 x 2499 km, 38.9° (Epoch: 06 December)

Event Time Altitude Azimuth Distance (km) Brightness Sun altitude
Rises 21:27:41 0° 277° (W) 3,991 11.7 -53.7°
Enters shadow 21:29:58 - 269° (W) 3,232 11.1 -54.1°
Reaches altitude 10° 21:31:46 10° 259° (W) 2,688 - -54.4°
Maximum altitude 21:35:33 17° 221° (SW) 1,964 - -55.0°
Drops below altitude 10° 21:38:46 10° 180° (S) 2,207 - -55.5°
Sets 21:41:40 0° 159° (SSE) 2,990 - -55.9°
